Погода в Кривячке

Россия / Костромская область     58°39′44″N   45°27′18″E
темп.,
°C
ветер,
м/с
пор.,
м/с
влажн.,
%
обл.,
%
осадки,
мм/ч
давл.,
гПа
погр.,
м
28 июля, ср
ср2800:00+9зсз11775 0.0 101813
03:00+9зсз23795 0.0 101862
06:00+12сз25695 0.0 1018168
09:00+18сз354730 0.0 10171127
12:00+21сз34320 0.0 10151718
15:00+23зсз35296 0.0 10142078
18:00+21з23460 0.0 1012118
21:00+14ююз22601 0.0 101111
29 июля, чт
чт2900:00+14юз2463100 0.0 101065
03:00+14зюз2276100 0.1 100943
06:00+16юз1378100 0.1 100796
09:00+21юз2459100 0.1 1006557
12:00+23зюз346389 0.6 1005839
15:00+18юз3793100 2.7 1004219
18:00+17зюз2696100 0.1 1003267
21:00+15юз2398100 0.1 100267
30 июля, пт
пт3000:00+15юз279990 0.0 1002205
03:00+14зюз3109946 0.0 1001297
06:00+15з310955 0.0 1001356
09:00+22з476028 0.0 1002911
12:00+26з474638 0.1 10012053
15:00+25зюз3549100 0.1 10021011
18:00+22юз2267100 0.0 100228
21:00+19юз24754 0.0 100291
31 июля, сб
сб3100:00+17юз268599 0.0 1002122
03:00+17ююз2592100 0.0 1002118
06:00+17юз249693 0.5 1002178
09:00+19зюз378957 1.9 1001419
12:00+24зюз49435 0.7 10012021
15:00+22юз495186 0.7 1001746
18:00+15с119598 1.0 100228
21:00+15юз289516 1.2 1003193
1 августа, вс
вс100:00+12зюз28945 0.0 1004149
03:00+12зюз25971 0.0 1005110
06:00+14юз3993100 0.0 1006276
09:00+21зюз4761100 0.0 1007689
12:00+25юз594587 0.0 10061879
15:00+17юз2687100 0.3 1007239
18:00+17всв1390100 0.1 100591
21:00+16ю4129855 6.4 1004512